Year,Month,Day,Hour,Minute,Value (Times are PST for temperature in C)
2020,10,07,00,00,14.30
2020,10,07,00,01,14.30
2020,10,07,00,02,14.30
2020,10,07,00,03,14.30
2020,10,07,00,04,14.30
2020,10,07,00,05,14.30
2020,10,07,00,06,14.30
2020,10,07,00,07,14.30
2020,10,07,00,08,14.30
2020,10,07,00,09,14.30
2020,10,07,00,10,14.30
2020,10,07,00,11,14.30
2020,10,07,00,12,14.20
2020,10,07,00,13,14.30
2020,10,07,00,14,14.20
2020,10,07,00,15,14.20
2020,10,07,00,16,14.20
2020,10,07,00,17,14.20
2020,10,07,00,18,14.20
2020,10,07,00,19,14.20
2020,10,07,00,20,14.20
2020,10,07,00,21,14.20
2020,10,07,00,22,14.20
2020,10,07,00,23,14.20
2020,10,07,00,24,14.20
2020,10,07,00,25,14.20
2020,10,07,00,26,14.20
2020,10,07,00,27,14.20
2020,10,07,00,28,14.20
2020,10,07,00,29,14.20
2020,10,07,00,30,14.20
2020,10,07,00,31,14.10
2020,10,07,00,32,14.20
2020,10,07,00,33,14.10
2020,10,07,00,34,14.10
2020,10,07,00,35,14.10
2020,10,07,00,36,14.10
2020,10,07,00,37,14.10
2020,10,07,00,38,14.10
2020,10,07,00,39,14.10
2020,10,07,00,40,14.10
2020,10,07,00,41,14.10
2020,10,07,00,42,14.00
2020,10,07,00,43,14.10
2020,10,07,00,44,14.10
2020,10,07,00,45,14.10
2020,10,07,00,46,14.10
2020,10,07,00,47,14.00
2020,10,07,00,48,14.00
2020,10,07,00,49,14.00
2020,10,07,00,50,14.00
2020,10,07,00,51,14.00
2020,10,07,00,52,13.90
2020,10,07,00,53,13.90
2020,10,07,00,54,13.90
2020,10,07,00,55,13.90
2020,10,07,00,56,13.90
2020,10,07,00,57,13.90
2020,10,07,00,58,13.90
2020,10,07,00,59,13.90
2020,10,07,01,00,13.90
2020,10,07,01,01,13.90
2020,10,07,01,02,13.90
2020,10,07,01,03,13.90
2020,10,07,01,04,13.90
2020,10,07,01,05,13.90
2020,10,07,01,06,13.80
2020,10,07,01,07,13.80
2020,10,07,01,08,13.80
2020,10,07,01,09,13.80
2020,10,07,01,10,13.80
2020,10,07,01,11,13.80
2020,10,07,01,12,13.80
2020,10,07,01,13,13.80
2020,10,07,01,14,13.80
2020,10,07,01,15,13.80
2020,10,07,01,16,13.80
2020,10,07,01,17,13.80
2020,10,07,01,18,13.80
2020,10,07,01,19,13.80
2020,10,07,01,20,13.80
2020,10,07,01,21,13.70
2020,10,07,01,22,13.70
2020,10,07,01,23,13.70
2020,10,07,01,24,13.70
2020,10,07,01,25,13.70
2020,10,07,01,26,13.70
2020,10,07,01,27,13.70
2020,10,07,01,28,13.70
2020,10,07,01,29,13.70
2020,10,07,01,30,13.70
2020,10,07,01,31,13.70
2020,10,07,01,32,13.70
2020,10,07,01,33,13.70
2020,10,07,01,34,13.70
2020,10,07,01,35,13.70
2020,10,07,01,36,13.70
2020,10,07,01,37,13.70
2020,10,07,01,38,13.70
2020,10,07,01,39,13.70
2020,10,07,01,40,13.60
2020,10,07,01,41,13.60
2020,10,07,01,42,13.60
2020,10,07,01,43,13.60
2020,10,07,01,44,13.60
2020,10,07,01,45,13.60
2020,10,07,01,46,13.60
2020,10,07,01,47,13.60
2020,10,07,01,48,13.60
2020,10,07,01,49,13.60
2020,10,07,01,50,13.60
2020,10,07,01,51,13.60
2020,10,07,01,52,13.60
2020,10,07,01,53,13.60
2020,10,07,01,54,13.60
2020,10,07,01,55,13.50
2020,10,07,01,56,13.50
2020,10,07,01,57,13.50
2020,10,07,01,58,13.50
2020,10,07,01,59,13.50
2020,10,07,02,00,13.60
2020,10,07,02,01,13.60
2020,10,07,02,02,13.60
2020,10,07,02,03,13.60
2020,10,07,02,04,13.60
2020,10,07,02,05,13.50
2020,10,07,02,06,13.50
2020,10,07,02,07,13.50
2020,10,07,02,08,13.50
2020,10,07,02,09,13.50
2020,10,07,02,10,13.50
2020,10,07,02,11,13.50
2020,10,07,02,12,13.50
2020,10,07,02,13,13.50
2020,10,07,02,14,13.40
2020,10,07,02,15,13.40
2020,10,07,02,16,13.40
2020,10,07,02,17,13.40
2020,10,07,02,18,13.40
2020,10,07,02,19,13.40
2020,10,07,02,20,13.40
2020,10,07,02,21,13.40
2020,10,07,02,22,13.40
2020,10,07,02,23,13.40
2020,10,07,02,24,13.40
2020,10,07,02,25,13.40
2020,10,07,02,26,13.40
2020,10,07,02,27,13.40
2020,10,07,02,28,13.40
2020,10,07,02,29,13.40
2020,10,07,02,30,13.40
2020,10,07,02,31,13.40
2020,10,07,02,32,13.40
2020,10,07,02,33,13.40
2020,10,07,02,34,13.30
2020,10,07,02,35,13.40
2020,10,07,02,36,13.40
2020,10,07,02,37,13.40
2020,10,07,02,38,13.40
2020,10,07,02,39,13.40
2020,10,07,02,40,13.40
2020,10,07,02,41,13.40
2020,10,07,02,42,13.40
2020,10,07,02,43,13.40
2020,10,07,02,44,13.50
2020,10,07,02,45,13.50
2020,10,07,02,46,13.50
2020,10,07,02,47,13.50
2020,10,07,02,48,13.50
2020,10,07,02,49,13.50
2020,10,07,02,50,13.40
2020,10,07,02,51,13.40
2020,10,07,02,52,13.30
2020,10,07,02,53,13.30
2020,10,07,02,54,13.30
2020,10,07,02,55,13.30
2020,10,07,02,56,13.20
2020,10,07,02,57,13.20
2020,10,07,02,58,13.20
2020,10,07,02,59,13.20
2020,10,07,03,00,13.10
2020,10,07,03,01,13.10
2020,10,07,03,02,13.10
2020,10,07,03,03,13.10
2020,10,07,03,04,13.10
2020,10,07,03,05,13.10
2020,10,07,03,06,13.10
2020,10,07,03,07,13.10
2020,10,07,03,08,13.10
2020,10,07,03,09,13.10
2020,10,07,03,10,13.10
2020,10,07,03,11,13.00
2020,10,07,03,12,13.10
2020,10,07,03,13,13.10
2020,10,07,03,14,13.10
2020,10,07,03,15,13.10
2020,10,07,03,16,13.10
2020,10,07,03,17,13.10
2020,10,07,03,18,13.10
2020,10,07,03,19,13.10
2020,10,07,03,20,13.20
2020,10,07,03,21,13.20
2020,10,07,03,22,13.20
2020,10,07,03,23,13.20
2020,10,07,03,24,13.20
2020,10,07,03,25,13.30
2020,10,07,03,26,13.30
2020,10,07,03,27,13.30
2020,10,07,03,28,13.30
2020,10,07,03,29,13.40
2020,10,07,03,30,13.40
2020,10,07,03,31,13.40
2020,10,07,03,32,13.40
2020,10,07,03,33,13.40
2020,10,07,03,34,13.40
2020,10,07,03,35,13.40
2020,10,07,03,36,13.50
2020,10,07,03,37,13.50
2020,10,07,03,38,13.50
2020,10,07,03,39,13.50
2020,10,07,03,40,13.50
2020,10,07,03,41,13.50
2020,10,07,03,42,13.50
2020,10,07,03,43,13.50
2020,10,07,03,44,13.50
2020,10,07,03,45,13.50
2020,10,07,03,46,13.50
2020,10,07,03,47,13.50
2020,10,07,03,48,13.50
2020,10,07,03,49,13.50
2020,10,07,03,50,13.50
2020,10,07,03,51,13.50
2020,10,07,03,52,13.50
2020,10,07,03,54,13.50
2020,10,07,03,55,13.40
2020,10,07,03,56,13.40
2020,10,07,03,57,13.50
2020,10,07,03,58,13.40
2020,10,07,03,59,13.40
2020,10,07,04,00,13.40
2020,10,07,04,01,13.40
2020,10,07,04,02,13.40
2020,10,07,04,03,13.40
2020,10,07,04,04,13.40
2020,10,07,04,05,13.40
2020,10,07,04,06,13.40
2020,10,07,04,07,13.40
2020,10,07,04,08,13.40
2020,10,07,04,09,13.40
2020,10,07,04,10,13.40
2020,10,07,04,11,13.30
2020,10,07,04,12,13.30
2020,10,07,04,13,13.30
2020,10,07,04,15,13.30
2020,10,07,04,16,13.30
2020,10,07,04,17,13.30
2020,10,07,04,18,13.30
2020,10,07,04,19,13.30
2020,10,07,04,20,13.30
2020,10,07,04,21,13.30
2020,10,07,04,22,13.30
2020,10,07,04,23,13.30
2020,10,07,04,24,13.30
2020,10,07,04,25,13.30
2020,10,07,04,26,13.30
2020,10,07,04,27,13.30
2020,10,07,04,28,13.30
2020,10,07,04,30,13.20
2020,10,07,04,31,13.20
2020,10,07,04,32,13.20
2020,10,07,04,33,13.20
2020,10,07,04,34,13.20
2020,10,07,04,35,13.20
2020,10,07,04,36,13.20
2020,10,07,04,37,13.20
2020,10,07,04,38,13.20
2020,10,07,04,39,13.20
2020,10,07,04,40,13.20
2020,10,07,04,41,13.20
2020,10,07,04,42,13.20
2020,10,07,04,43,13.20
2020,10,07,04,44,13.20
2020,10,07,04,45,13.10
2020,10,07,04,46,13.10
2020,10,07,04,47,13.10
2020,10,07,04,48,13.10
2020,10,07,04,49,13.10
2020,10,07,04,50,13.10
2020,10,07,04,51,13.10
2020,10,07,04,52,13.10
2020,10,07,04,53,13.10
2020,10,07,04,54,13.10
2020,10,07,04,55,13.00
2020,10,07,04,56,13.00
2020,10,07,04,57,13.00
2020,10,07,04,58,13.00
2020,10,07,04,59,13.00
2020,10,07,05,00,13.00
2020,10,07,05,01,12.90
2020,10,07,05,02,12.90
2020,10,07,05,03,12.90
2020,10,07,05,04,12.90
2020,10,07,05,05,12.90
2020,10,07,05,06,12.90
2020,10,07,05,07,12.90
2020,10,07,05,08,12.90
2020,10,07,05,09,12.90
2020,10,07,05,10,12.90
2020,10,07,05,11,12.90
2020,10,07,05,12,12.90
2020,10,07,05,13,12.90
2020,10,07,05,14,12.90
2020,10,07,05,15,12.90
2020,10,07,05,16,12.90
2020,10,07,05,17,12.90
2020,10,07,05,18,12.90
2020,10,07,05,19,12.90
2020,10,07,05,20,12.90
2020,10,07,05,21,12.90
2020,10,07,05,22,12.90
2020,10,07,05,23,12.90
2020,10,07,05,24,13.00
2020,10,07,05,25,13.00
2020,10,07,05,26,13.00
2020,10,07,05,27,12.90
2020,10,07,05,28,12.90
2020,10,07,05,29,12.90
2020,10,07,05,30,12.90
2020,10,07,05,31,12.90
2020,10,07,05,32,12.90
2020,10,07,05,33,12.90
2020,10,07,05,34,12.90
2020,10,07,05,35,12.90
2020,10,07,05,36,12.90
2020,10,07,05,37,12.90
2020,10,07,05,38,12.80
2020,10,07,05,39,12.80
2020,10,07,05,40,12.80
2020,10,07,05,41,12.80
2020,10,07,05,42,12.80
2020,10,07,05,43,12.80
2020,10,07,05,44,12.80
2020,10,07,05,45,12.80
2020,10,07,05,46,12.80
2020,10,07,05,47,12.80
2020,10,07,05,48,12.80
2020,10,07,05,49,12.80
2020,10,07,05,50,12.80
2020,10,07,05,51,12.80
2020,10,07,05,52,12.80
2020,10,07,05,53,12.80
2020,10,07,05,54,12.80
2020,10,07,05,55,12.80
2020,10,07,05,56,12.80
2020,10,07,05,57,12.80
2020,10,07,05,58,12.80
2020,10,07,05,59,12.80
2020,10,07,06,00,12.80
2020,10,07,06,01,12.80
2020,10,07,06,02,12.80
2020,10,07,06,03,12.80
2020,10,07,06,04,12.80
2020,10,07,06,05,12.80
2020,10,07,06,06,12.80
2020,10,07,06,07,12.80
2020,10,07,06,08,12.80
2020,10,07,06,09,12.80
2020,10,07,06,10,12.80
2020,10,07,06,11,12.80
2020,10,07,06,12,12.80
2020,10,07,06,13,12.80
2020,10,07,06,14,12.80
2020,10,07,06,15,12.80
2020,10,07,06,16,12.80
2020,10,07,06,17,12.80
2020,10,07,06,18,12.80
2020,10,07,06,19,12.80
2020,10,07,06,20,12.80
2020,10,07,06,21,12.80
2020,10,07,06,22,12.80
2020,10,07,06,23,12.80
2020,10,07,06,24,12.80
2020,10,07,06,25,12.80
2020,10,07,06,26,12.80
2020,10,07,06,27,12.80
2020,10,07,06,28,12.80
2020,10,07,06,29,12.80
2020,10,07,06,30,12.80
2020,10,07,06,31,12.80
2020,10,07,06,32,12.80
2020,10,07,06,33,12.80
2020,10,07,06,34,12.80
2020,10,07,06,35,12.80
2020,10,07,06,36,12.80
2020,10,07,06,37,12.80
2020,10,07,06,38,12.70
2020,10,07,06,39,12.70
2020,10,07,06,40,12.70
2020,10,07,06,41,12.70
2020,10,07,06,42,12.70
2020,10,07,06,43,12.70
2020,10,07,06,44,12.70
2020,10,07,06,45,12.70
2020,10,07,06,46,12.70
2020,10,07,06,47,12.60
2020,10,07,06,48,12.60
2020,10,07,06,49,12.60
2020,10,07,06,50,12.60
2020,10,07,06,51,12.60
2020,10,07,06,52,12.60
2020,10,07,06,53,12.50
2020,10,07,06,54,12.50
2020,10,07,06,55,12.50
2020,10,07,06,56,12.50
2020,10,07,06,57,12.50
2020,10,07,06,58,12.50
2020,10,07,06,59,12.50
2020,10,07,07,00,12.50
2020,10,07,07,01,12.50
2020,10,07,07,02,12.50
2020,10,07,07,03,12.50
2020,10,07,07,04,12.60
2020,10,07,07,05,12.60
2020,10,07,07,06,12.60
2020,10,07,07,07,12.60
2020,10,07,07,08,12.60
2020,10,07,07,09,12.60
2020,10,07,07,10,12.60
2020,10,07,07,11,12.60
2020,10,07,07,12,12.60
2020,10,07,07,13,12.60
2020,10,07,07,14,12.60
2020,10,07,07,15,12.60
2020,10,07,07,16,12.60
2020,10,07,07,17,12.60
2020,10,07,07,18,12.60
2020,10,07,07,19,12.60
2020,10,07,07,20,12.60
2020,10,07,07,21,12.60
2020,10,07,07,22,12.60
2020,10,07,07,23,12.60
2020,10,07,07,24,12.60
2020,10,07,07,25,12.60
2020,10,07,07,26,12.60
2020,10,07,07,27,12.60
2020,10,07,07,28,12.60
2020,10,07,07,29,12.60
2020,10,07,07,30,12.70
2020,10,07,07,31,12.70
2020,10,07,07,32,12.70
2020,10,07,07,33,12.70
2020,10,07,07,34,12.70
2020,10,07,07,35,12.70
2020,10,07,07,36,12.70
2020,10,07,07,37,12.70
2020,10,07,07,38,12.70
2020,10,07,07,39,12.70
2020,10,07,07,40,12.70
2020,10,07,07,41,12.70
2020,10,07,07,42,12.80
2020,10,07,07,43,12.80
2020,10,07,07,44,12.80
2020,10,07,07,45,12.80
2020,10,07,07,46,12.80
2020,10,07,07,47,12.80
2020,10,07,07,48,12.80
2020,10,07,07,49,12.80
2020,10,07,07,50,12.80
2020,10,07,07,51,12.80
2020,10,07,07,52,12.80
2020,10,07,07,53,12.80
2020,10,07,07,54,12.90
2020,10,07,07,55,12.90
2020,10,07,07,56,12.90
2020,10,07,07,57,12.90
2020,10,07,07,58,12.90
2020,10,07,07,59,12.90
2020,10,07,08,00,12.90
2020,10,07,08,01,12.90
2020,10,07,08,02,12.90
2020,10,07,08,03,13.00
2020,10,07,08,04,13.00
2020,10,07,08,05,13.00
2020,10,07,08,06,13.10
2020,10,07,08,07,13.10
2020,10,07,08,08,13.10
2020,10,07,08,09,13.10
2020,10,07,08,10,13.10
2020,10,07,08,11,13.10
2020,10,07,08,12,13.10
2020,10,07,08,13,13.20
2020,10,07,08,14,13.20
2020,10,07,08,15,13.20
2020,10,07,08,16,13.20
2020,10,07,08,17,13.20
2020,10,07,08,18,13.20
2020,10,07,08,19,13.20
2020,10,07,08,20,13.20
2020,10,07,08,21,13.30
2020,10,07,08,22,13.30
2020,10,07,08,23,13.30
2020,10,07,08,24,13.30
2020,10,07,08,25,13.30
2020,10,07,08,26,13.30
2020,10,07,08,27,13.30
2020,10,07,08,28,13.30
2020,10,07,08,29,13.30
2020,10,07,08,30,13.40
2020,10,07,08,31,13.40
2020,10,07,08,32,13.40
2020,10,07,08,33,13.40
2020,10,07,08,34,13.40
2020,10,07,08,35,13.40
2020,10,07,08,36,13.40
2020,10,07,08,37,13.40
2020,10,07,08,38,13.40
2020,10,07,08,39,13.40
2020,10,07,08,40,13.50
2020,10,07,08,41,13.50
2020,10,07,08,42,13.50
2020,10,07,08,43,13.60
2020,10,07,08,44,13.60
2020,10,07,08,45,13.60
2020,10,07,08,46,13.60
2020,10,07,08,47,13.60
2020,10,07,08,48,13.70
2020,10,07,08,49,13.70
2020,10,07,08,50,13.70
2020,10,07,08,51,13.70
2020,10,07,08,52,13.70
2020,10,07,08,53,13.70
2020,10,07,08,54,13.70
2020,10,07,08,55,13.70
2020,10,07,08,56,13.70
2020,10,07,08,57,13.80
2020,10,07,08,58,13.70
2020,10,07,08,59,13.80
2020,10,07,09,00,13.80
2020,10,07,09,01,13.80
2020,10,07,09,02,13.80
2020,10,07,09,03,13.70
2020,10,07,09,04,13.70
2020,10,07,09,05,13.70
2020,10,07,09,06,13.80
2020,10,07,09,07,13.70
2020,10,07,09,08,13.80
2020,10,07,09,09,13.80
2020,10,07,09,10,13.80
2020,10,07,09,11,13.80
2020,10,07,09,12,13.80
2020,10,07,09,13,13.80
2020,10,07,09,14,13.80
2020,10,07,09,15,13.80
2020,10,07,09,16,13.80
2020,10,07,09,17,13.80
2020,10,07,09,18,13.80
2020,10,07,09,19,13.80
2020,10,07,09,20,13.80
2020,10,07,09,21,13.80
2020,10,07,09,22,13.80
2020,10,07,09,23,13.90
2020,10,07,09,24,13.90
2020,10,07,09,25,13.90
2020,10,07,09,26,13.90
2020,10,07,09,27,13.90
2020,10,07,09,28,13.90
2020,10,07,09,29,13.90
2020,10,07,09,30,13.90
2020,10,07,09,31,14.00
2020,10,07,09,32,14.00
2020,10,07,09,33,14.00
2020,10,07,09,34,14.00
2020,10,07,09,35,14.00
2020,10,07,09,36,14.00
2020,10,07,09,37,14.00
2020,10,07,09,38,14.00
2020,10,07,09,39,14.10
2020,10,07,09,40,14.10
2020,10,07,09,41,14.10
2020,10,07,09,42,14.10
2020,10,07,09,43,14.10
2020,10,07,09,44,14.10
2020,10,07,09,45,14.10
2020,10,07,09,46,14.10
2020,10,07,09,47,14.10
2020,10,07,09,48,14.10
2020,10,07,09,49,14.10
2020,10,07,09,50,14.10
2020,10,07,09,51,14.10
2020,10,07,09,52,14.10
2020,10,07,09,53,14.10
2020,10,07,09,54,14.10
2020,10,07,09,55,14.10
2020,10,07,09,56,14.10
2020,10,07,09,57,14.10
2020,10,07,09,58,14.10
2020,10,07,09,59,14.10
2020,10,07,10,00,14.10
2020,10,07,10,01,14.10
2020,10,07,10,02,14.20
2020,10,07,10,03,14.20
2020,10,07,10,04,14.20
2020,10,07,10,05,14.20
2020,10,07,10,06,14.20
2020,10,07,10,07,14.20
2020,10,07,10,08,14.20
2020,10,07,10,09,14.30
2020,10,07,10,10,14.30
2020,10,07,10,11,14.30
2020,10,07,10,12,14.30
2020,10,07,10,13,14.30
2020,10,07,10,14,14.30
2020,10,07,10,15,14.30
2020,10,07,10,16,14.30
2020,10,07,10,17,14.30
2020,10,07,10,18,14.30
2020,10,07,10,19,14.30
2020,10,07,10,20,14.40
2020,10,07,10,21,14.40
2020,10,07,10,22,14.40
2020,10,07,10,23,14.40
2020,10,07,10,24,14.40
2020,10,07,10,25,14.40
2020,10,07,10,26,14.40
2020,10,07,10,27,14.50
2020,10,07,10,28,14.50
2020,10,07,10,29,14.60
2020,10,07,10,30,14.60
2020,10,07,10,31,14.60
2020,10,07,10,32,14.60
2020,10,07,10,33,14.60
2020,10,07,10,34,14.60
2020,10,07,10,35,14.60
2020,10,07,10,36,14.60
2020,10,07,10,37,14.70
2020,10,07,10,38,14.70
2020,10,07,10,39,14.70
2020,10,07,10,40,14.70
2020,10,07,10,41,14.70
2020,10,07,10,42,14.70
2020,10,07,10,43,14.70
2020,10,07,10,44,14.70
2020,10,07,10,45,14.80
2020,10,07,10,46,14.80
2020,10,07,10,47,14.80
2020,10,07,10,48,14.80
2020,10,07,10,49,14.80
2020,10,07,10,50,14.90
2020,10,07,10,51,14.90
2020,10,07,10,52,14.90
2020,10,07,10,53,14.90
2020,10,07,10,54,14.90
2020,10,07,10,55,15.00
2020,10,07,10,56,15.00
2020,10,07,10,57,15.10
2020,10,07,10,58,15.10
2020,10,07,10,59,15.10
2020,10,07,11,00,15.10
2020,10,07,11,01,15.20
2020,10,07,11,02,15.20
2020,10,07,11,03,15.20
2020,10,07,11,04,15.20
2020,10,07,11,05,15.20
2020,10,07,11,06,15.30
2020,10,07,11,07,15.30
2020,10,07,11,08,15.30
2020,10,07,11,09,15.30
2020,10,07,11,10,15.30
2020,10,07,11,11,15.40
2020,10,07,11,12,15.40
2020,10,07,11,13,15.40
2020,10,07,11,14,15.40
2020,10,07,11,15,15.40
2020,10,07,11,16,15.50
2020,10,07,11,17,15.50
2020,10,07,11,18,15.60
2020,10,07,11,19,15.60
2020,10,07,11,20,15.60
2020,10,07,11,21,15.70
2020,10,07,11,22,15.70
2020,10,07,11,23,15.80
2020,10,07,11,24,15.80
2020,10,07,11,25,15.80
2020,10,07,11,26,15.80
2020,10,07,11,27,15.80
2020,10,07,11,28,15.80
2020,10,07,11,29,15.80
2020,10,07,11,30,15.80
2020,10,07,11,31,15.90
2020,10,07,11,32,15.90
2020,10,07,11,33,15.90
2020,10,07,11,34,15.90
2020,10,07,11,35,15.90
2020,10,07,11,36,16.00
2020,10,07,11,37,16.10
2020,10,07,11,38,16.10
2020,10,07,11,39,16.10
2020,10,07,11,40,16.10
2020,10,07,11,41,16.10
2020,10,07,11,42,16.10
2020,10,07,11,43,16.10
2020,10,07,11,44,16.10
2020,10,07,11,45,16.20
2020,10,07,11,46,16.20
2020,10,07,11,47,16.20
2020,10,07,11,48,16.20
2020,10,07,11,49,16.20
2020,10,07,11,50,16.20
2020,10,07,11,51,16.20
2020,10,07,11,52,16.20
2020,10,07,11,53,16.20
2020,10,07,11,54,16.30
2020,10,07,11,55,16.30
2020,10,07,11,56,16.30
2020,10,07,11,57,16.30
2020,10,07,11,58,16.30
2020,10,07,11,59,16.30
2020,10,07,12,00,16.40
2020,10,07,12,01,16.40
2020,10,07,12,02,16.40
2020,10,07,12,03,16.40
2020,10,07,12,04,16.40
2020,10,07,12,05,16.40
2020,10,07,12,06,16.40
2020,10,07,12,07,16.40
2020,10,07,12,08,16.40
2020,10,07,12,09,16.40
2020,10,07,12,10,16.50
2020,10,07,12,11,16.50
2020,10,07,12,12,16.50
2020,10,07,12,13,16.50
2020,10,07,12,14,16.50
2020,10,07,12,15,16.60
2020,10,07,12,16,16.60
2020,10,07,12,17,16.60
2020,10,07,12,18,16.50
2020,10,07,12,19,16.50
2020,10,07,12,20,16.50
2020,10,07,12,21,16.60
2020,10,07,12,22,16.60
2020,10,07,12,23,16.60
2020,10,07,12,24,16.60
2020,10,07,12,25,16.60
2020,10,07,12,26,16.60
2020,10,07,12,27,16.60
2020,10,07,12,28,16.60
2020,10,07,12,29,16.60
2020,10,07,12,30,16.70
2020,10,07,12,31,16.70
2020,10,07,12,32,16.70
2020,10,07,12,33,16.70
2020,10,07,12,34,16.80
2020,10,07,12,35,16.80
2020,10,07,12,36,16.80
2020,10,07,12,37,16.80
2020,10,07,12,38,16.80
2020,10,07,12,39,16.90
2020,10,07,12,40,16.90
2020,10,07,12,41,16.90
2020,10,07,12,42,16.90
2020,10,07,12,43,16.90
2020,10,07,12,44,16.90
2020,10,07,12,45,16.90
2020,10,07,12,46,17.00
2020,10,07,12,47,17.00
2020,10,07,12,48,17.10
2020,10,07,12,49,17.10
2020,10,07,12,50,17.20
2020,10,07,12,51,17.20
2020,10,07,12,52,17.30
2020,10,07,12,53,17.30
2020,10,07,12,54,17.30
2020,10,07,12,55,17.30
2020,10,07,12,56,17.40
2020,10,07,12,57,17.40
2020,10,07,12,58,17.40
2020,10,07,12,59,17.50
2020,10,07,13,00,17.60
2020,10,07,13,01,17.60
2020,10,07,13,02,17.70
2020,10,07,13,03,17.70
2020,10,07,13,04,17.80
2020,10,07,13,05,17.80
2020,10,07,13,06,17.80
2020,10,07,13,07,17.90
2020,10,07,13,08,18.00
2020,10,07,13,09,18.10
2020,10,07,13,10,18.10
2020,10,07,13,11,18.20
2020,10,07,13,12,18.20
2020,10,07,13,13,18.20
2020,10,07,13,14,18.20
2020,10,07,13,15,18.20
2020,10,07,13,16,18.10
2020,10,07,13,17,18.10
2020,10,07,13,18,18.10
2020,10,07,13,19,18.20
2020,10,07,13,20,18.20
2020,10,07,13,21,18.30
2020,10,07,13,22,18.30
2020,10,07,13,23,18.40
2020,10,07,13,24,18.40
2020,10,07,13,25,18.50
2020,10,07,13,26,18.50
2020,10,07,13,27,18.40
2020,10,07,13,28,18.40
2020,10,07,13,29,18.50
2020,10,07,13,30,18.50
2020,10,07,13,31,18.60
2020,10,07,13,33,18.60
2020,10,07,13,34,18.60
2020,10,07,13,35,18.60
2020,10,07,13,36,18.60
2020,10,07,13,37,18.60
2020,10,07,13,38,18.60
2020,10,07,13,39,18.60
2020,10,07,13,40,18.60
2020,10,07,13,41,18.70
2020,10,07,13,42,18.70
2020,10,07,13,43,18.70
2020,10,07,13,44,18.80
2020,10,07,13,45,18.80
2020,10,07,13,46,18.90
2020,10,07,13,47,18.90
2020,10,07,13,48,19.10
2020,10,07,13,49,19.20
2020,10,07,13,50,19.20
2020,10,07,13,51,19.20
2020,10,07,13,52,19.20
2020,10,07,13,53,19.20
2020,10,07,13,54,19.20
2020,10,07,13,55,19.30
2020,10,07,13,56,19.30
2020,10,07,13,57,19.40
2020,10,07,13,58,19.50
2020,10,07,13,59,19.40
2020,10,07,14,00,19.50
2020,10,07,14,01,19.50
2020,10,07,14,02,19.60
2020,10,07,14,03,19.70
2020,10,07,14,04,19.80
2020,10,07,14,05,19.80
2020,10,07,14,07,19.80
2020,10,07,14,08,19.90
2020,10,07,14,09,19.90
2020,10,07,14,10,19.90
2020,10,07,14,11,20.00
2020,10,07,14,12,20.00
2020,10,07,14,13,20.00
2020,10,07,14,14,20.00
2020,10,07,14,15,19.90
2020,10,07,14,16,19.90
2020,10,07,14,17,19.90
2020,10,07,14,18,19.80
2020,10,07,14,19,19.80
2020,10,07,14,20,19.90
2020,10,07,14,21,19.90
2020,10,07,14,22,20.00
2020,10,07,14,23,20.00
2020,10,07,14,24,20.00
2020,10,07,14,25,20.00
2020,10,07,14,26,20.10
2020,10,07,14,27,20.20
2020,10,07,14,28,20.30
2020,10,07,14,29,20.30
2020,10,07,14,30,20.20
2020,10,07,14,31,20.20
2020,10,07,14,32,20.10
2020,10,07,14,33,20.10
2020,10,07,14,36,20.10
2020,10,07,14,37,20.10
2020,10,07,14,38,20.20
2020,10,07,14,39,20.20
2020,10,07,14,40,20.30
2020,10,07,14,41,20.40
2020,10,07,14,42,20.40
2020,10,07,14,43,20.50
2020,10,07,14,44,20.60
2020,10,07,14,45,20.60
2020,10,07,14,46,20.60
2020,10,07,14,47,20.60
2020,10,07,14,48,20.60
2020,10,07,14,49,20.70
2020,10,07,14,50,20.80
2020,10,07,14,51,20.80
2020,10,07,14,52,20.80
2020,10,07,14,53,20.80
2020,10,07,14,54,20.80
2020,10,07,14,55,20.80
2020,10,07,14,56,20.90
2020,10,07,14,57,20.90
2020,10,07,14,58,20.90
2020,10,07,14,59,20.90
2020,10,07,15,00,20.90
2020,10,07,15,01,20.90
2020,10,07,15,02,20.90
2020,10,07,15,03,20.90
2020,10,07,15,04,20.90
2020,10,07,15,05,20.90
2020,10,07,15,06,20.90
2020,10,07,15,07,20.90
2020,10,07,15,08,20.90
2020,10,07,15,09,20.80
2020,10,07,15,10,20.80
2020,10,07,15,11,20.70
2020,10,07,15,12,20.70
2020,10,07,15,13,20.70
2020,10,07,15,14,20.70
2020,10,07,15,15,20.80
2020,10,07,15,16,20.80
2020,10,07,15,17,20.80
2020,10,07,15,18,20.90
2020,10,07,15,19,20.90
2020,10,07,15,20,20.90
2020,10,07,15,21,20.90
2020,10,07,15,22,20.90
2020,10,07,15,23,21.00
2020,10,07,15,24,21.00
2020,10,07,15,25,21.10
2020,10,07,15,26,21.10
2020,10,07,15,27,21.10
2020,10,07,15,28,21.10
2020,10,07,15,29,21.20
2020,10,07,15,30,21.20
2020,10,07,15,31,21.30
2020,10,07,15,32,21.40
2020,10,07,15,33,21.40
2020,10,07,15,34,21.50
2020,10,07,15,35,21.60
2020,10,07,15,36,21.60
2020,10,07,15,37,21.60
2020,10,07,15,38,21.60
2020,10,07,15,39,21.70
2020,10,07,15,40,21.70
2020,10,07,15,41,21.70
2020,10,07,15,42,21.70
2020,10,07,15,43,21.70
2020,10,07,15,44,21.80
2020,10,07,15,45,21.80
2020,10,07,15,46,21.80
2020,10,07,15,47,21.80
2020,10,07,15,48,21.90
2020,10,07,15,49,21.90
2020,10,07,15,50,21.90
2020,10,07,15,51,21.90
2020,10,07,15,52,21.90
2020,10,07,15,53,21.80
2020,10,07,15,54,21.80
2020,10,07,15,55,21.70
2020,10,07,15,56,21.60
2020,10,07,15,57,21.50
2020,10,07,15,58,21.40
2020,10,07,15,59,21.40
2020,10,07,16,00,21.50
2020,10,07,16,01,21.60
2020,10,07,16,02,21.70
2020,10,07,16,03,21.70
2020,10,07,16,04,21.80
2020,10,07,16,05,21.90
2020,10,07,16,06,22.00
2020,10,07,16,07,22.10
2020,10,07,16,08,22.20
2020,10,07,16,09,22.20
2020,10,07,16,10,22.20
2020,10,07,16,11,22.20
2020,10,07,16,12,22.20
2020,10,07,16,13,22.20
2020,10,07,16,14,22.20
2020,10,07,16,15,22.10
2020,10,07,16,16,22.20
2020,10,07,16,17,22.20
2020,10,07,16,18,22.20
2020,10,07,16,19,22.20
2020,10,07,16,20,22.30
2020,10,07,16,21,22.30
2020,10,07,16,22,22.30
2020,10,07,16,23,22.40
2020,10,07,16,24,22.40
2020,10,07,16,25,22.50
2020,10,07,16,26,22.60
2020,10,07,16,27,22.60
2020,10,07,16,28,22.70
2020,10,07,16,29,22.70
2020,10,07,16,30,22.60
2020,10,07,16,31,22.50
2020,10,07,16,32,22.40
2020,10,07,16,33,22.40
2020,10,07,16,34,22.30
2020,10,07,16,35,22.30
2020,10,07,16,36,22.40
2020,10,07,16,37,22.40
2020,10,07,16,38,22.40
2020,10,07,16,39,22.50
2020,10,07,16,40,22.50
2020,10,07,16,41,22.60
2020,10,07,16,43,22.60
2020,10,07,16,45,22.60
2020,10,07,16,48,22.40
2020,10,07,16,49,22.30
2020,10,07,16,50,22.30
2020,10,07,16,51,22.30
2020,10,07,16,52,22.30
2020,10,07,16,53,22.20
2020,10,07,16,54,22.20
2020,10,07,16,55,22.20
2020,10,07,16,56,22.20
2020,10,07,16,57,22.30
2020,10,07,16,58,22.30
2020,10,07,16,59,22.30
2020,10,07,17,00,22.30
2020,10,07,17,01,22.30
2020,10,07,17,02,22.20
2020,10,07,17,04,22.10
2020,10,07,17,05,22.00
2020,10,07,17,06,21.90
2020,10,07,17,07,21.80
2020,10,07,17,08,21.80
2020,10,07,17,09,21.70
2020,10,07,17,10,21.70
2020,10,07,17,11,21.60
2020,10,07,17,12,21.50
2020,10,07,17,13,21.50
2020,10,07,17,15,21.50
2020,10,07,17,16,21.40
2020,10,07,17,17,21.40
2020,10,07,17,18,21.40
2020,10,07,17,19,21.30
2020,10,07,17,20,21.30
2020,10,07,17,22,21.30
2020,10,07,17,24,21.30
2020,10,07,17,25,21.20
2020,10,07,17,26,21.20
2020,10,07,17,27,21.20
2020,10,07,17,28,21.20
2020,10,07,17,29,21.20
2020,10,07,17,30,21.10
2020,10,07,17,31,21.10
2020,10,07,17,32,21.00
2020,10,07,17,33,20.90
2020,10,07,17,34,20.90